Regional Weather Roundup
Issued by NWS Green Bay, WI

Home | Current Version | Previous Version | Text Only | Print | Product List | Glossary On
Versions: 1 2 3 4 5 6 7 8 9 10 11 12 13 14 15 16 17 18 19 20 21 22 23 24 25 26 27 28 29 30 31 32 33 34 35 36 37 38 39 40 41 42 43 44 45 46 47 48 49 50
000
ASUS43 KGRB 201411
RWRGRB

NORTH-CENTRAL AND NORTHEAST WISCONSIN REGIONAL WEATHER ROUNDUP
NATIONAL WEATHER SERVICE GREEN BAY WI
800 AM CST FRI JAN 20 2017

WIZ005-009-010>012-018-019-201500-
NORTH CENTRAL WISCONSIN

CITY           SKY/WX    TMP DP  RH WIND       PRES   REMARKS
IRONWOOD       CLOUDY    34  30  85 SE3       29.70R
MANITOWISH WTR MIX PCPN  30  30 100 CALM      29.68S
ARBOR VITAE    MIX PCPN  32  31  96 S3        29.68S
EAGLE RIVER    CLOUDY    32  31  99 CALM      29.69S
LAND O LAKES   CLOUDY    28  28  99 CALM      29.70S
RHINELANDER    FRZ RAIN  32  32 100 CALM      29.68F FOG
PHILLIPS       RAIN      32  32 100 E3        29.67S
ANTIGO         MIX PCPN  32  32 100 CALM      29.69S
TOMAHAWK       LGT RAIN  32  31  98 CALM      29.69S VSB 3/4
MERRILL        LGT RAIN  32  32 100 E3          N/A  VSB 1
$$

WIZ013-073-201500-
NORTHEAST WISCONSIN

CITY           SKY/WX    TMP DP  RH WIND       PRES   REMARKS
IRON MOUNTAIN  CLOUDY    30  28  92 CALM      29.70S FOG
MARINETTE      NOT AVBL
OCONTO         CLOUDY    32  32 100 CALM      29.72S
$$

WIZ017-030-035>037-045-201500-
CENTRAL WISCONSIN

CITY           SKY/WX    TMP DP  RH WIND       PRES   REMARKS
MEDFORD        DRIZZLE   33  32  98 E6        29.66S
WAUSAU         MIX PCPN  32  32 100 E5        29.67F FOG
MOSINEE        FRZ RAIN  32  32 100 E7        29.69S
MARSHFIELD     CLOUDY    33  31  92 E8        29.65S FOG
WISC RAPIDS    CLOUDY    34  33  96 E7        29.68S
STEVENS POINT  MIX PCPN  31  31 100 NE7       29.68F
WAUPACA        CLOUDY    34  33  96 CALM      29.69F FOG
SHAWANO        RAIN      34  33  95 CALM      29.71S
CLINTONVILLE   LGT SNOW  32  32 100 CALM      29.70S
WAUTOMA        CLOUDY    33  33 100 NE5       29.68S FOG
$$

WIZ038-039-048-051-201500-
FOX VALLEY

CITY           SKY/WX    TMP DP  RH WIND       PRES   REMARKS
NWS GREEN BAY  LGT RAIN  34  34 100 NE9       29.71S FOG
APPLETON       DRZL/FOG  34  34 100 MISG      29.68S VSB 1
OSHKOSH        MIX PCPN  33  32  96 NE6       29.68S FOG
FOND DU LAC    LGT RAIN  35  32  88 NE7       29.67S FOG
$$

WIZ022-050-052-201500-
EAST CENTRAL WISCONSIN

CITY           SKY/WX    TMP DP  RH WIND       PRES   REMARKS
EPHRAIM        FOG       32  32 100 N5        29.71S VSB<1/4
WASHINGTON ISL FOG       33  33 100 NE3       29.73S VSB<1/4
STURGEON BAY   FOG       32  32 100 N5        29.73R VSB 1/4
MANITOWOC      LGT RAIN  35  34  96 N3        29.70F VSB 1/4
SHEBOYGAN      LGT RAIN  35  34  96 NE7       29.67F VSB 1/4
$$

LMZ563-521-522-541>543-201500-
LAKESHORE

STATION/POSITION TIME  TEMP    WIND        PRES    VSBY  WAVE
                       AIR SEA DIR/SP/G                  HT/PER
                 (UTC) (F)     (DEG/KT/KT) (MB)    (MI)  (FT/S)
SHEBOYGAN LKSHOR 1300   36      20/  5/  5 1005.8S
KEWAUNEE LKSHORE 1348   35      30/  2/  6 1005.9R
NORTHPORT PIER   1340   32     320/  2/  3 1006.8S
SISTER BAY LKSHO 1335   33        CALM       N/A
$$




USA.gov is the U.S. government's official web portal to all federal, state and local government web resources and services.